| time (UTC) | temp F | wind direction | speed MPH | gust MPH | rain 1hr in | rain 24hr in | rain mn in | humidity % | barometer mb |
| 20260905025713 | 65 | 29 | 13.0 | 16.0 | 0.00 | 0.27 | 0.27 | 95 | 1017.9 |
| 20260905025209 | 65 | 29 | 13.0 | 16.0 | 0.00 | 0.27 | 0.27 | 94 | 1017.9 |
| 20260905024704 | 66 | 29 | 13.0 | 16.0 | 0.00 | 0.27 | 0.27 | 94 | 1017.9 |
| 20260905024200 | 66 | 29 | 13.0 | 16.0 | 0.00 | 0.27 | 0.27 | 94 | 1018.0 |
| 20260905023654 | 65 | 29 | 13.0 | 16.0 | 0.00 | 0.27 | 0.27 | 93 | 1017.9 |
| 20260905023149 | 65 | 29 | 13.0 | 16.0 | 0.00 | 0.27 | 0.27 | 93 | 1017.8 |
| 20260905022648 | 65 | 29 | 13.0 | 16.0 | 0.00 | 0.27 | 0.27 | 95 | 1018.0 |
| 20260905022144 | 65 | 29 | 13.0 | 16.0 | 0.00 | 0.27 | 0.27 | 97 | 1018.0 |
| 20260905021643 | 65 | 29 | 13.0 | 16.0 | 0.00 | 0.27 | 0.27 | 97 | 1017.9 |
| 20260905021139 | 65 | 29 | 13.0 | 16.0 | 0.00 | 0.27 | 0.27 | 98 | 1017.9 |
| 20260905020633 | 65 | 29 | 13.0 | 16.0 | 0.00 | 0.27 | 0.27 | 98 | 1017.8 |
| 20260905020129 | 65 | 29 | 13.0 | 16.0 | 0.00 | 0.27 | 0.27 | 98 | 1017.8 |
| 20260905015627 | 65 | 29 | 13.0 | 16.0 | 0.00 | 0.27 | 0.27 | 97 | 1017.9 |
| 20260905015121 | 66 | 29 | 13.0 | 16.0 | 0.00 | 0.27 | 0.27 | 97 | 1017.7 |
| 20260905014615 | 66 | 29 | 13.0 | 16.0 | 0.00 | 0.27 | 0.27 | 97 | 1017.8 |
| 20260905014111 | 67 | 29 | 13.0 | 16.0 | 0.00 | 0.27 | 0.27 | 96 | 1017.9 |
| 20260905013608 | 67 | 29 | 13.0 | 16.0 | 0.00 | 0.27 | 0.27 | 95 | 1017.8 |
| 20260905013103 | 67 | 29 | 13.0 | 16.0 | 0.00 | 0.27 | 0.27 | 96 | 1017.9 |
| 20260905012603 | 67 | 29 | 13.0 | 16.0 | 0.00 | 0.27 | 0.27 | 96 | 1018.0 |
| 20260905012100 | 67 | 29 | 13.0 | 16.0 | 0.00 | 0.27 | 0.27 | 96 | 1018.0 |
| 20260905011555 | 67 | 29 | 13.0 | 16.0 | 0.00 | 0.27 | 0.27 | 96 | 1017.9 |
| 20260905011050 | 68 | 29 | 13.0 | 16.0 | 0.00 | 0.27 | 0.27 | 96 | 1017.9 |
| 20260905010550 | 68 | 29 | 13.0 | 16.0 | 0.00 | 0.27 | 0.27 | 95 | 1017.9 |
| 20260905010047 | 68 | 29 | 13.0 | 16.0 | 0.00 | 0.27 | 0.27 | 96 | 1017.8 |
| 20260905005542 | 68 | 29 | 13.0 | 16.0 | 0.00 | 0.27 | 0.27 | 96 | 1017.9 |
| 20260905005037 | 68 | 29 | 13.0 | 16.0 | 0.00 | 0.27 | 0.27 | 96 | 1018.2 |
| 20260905004532 | 68 | 29 | 13.0 | 16.0 | 0.00 | 0.27 | 0.27 | 96 | 1018.0 |
| 20260905004027 | 68 | 29 | 13.0 | 16.0 | 0.00 | 0.27 | 0.27 | 95 | 1017.9 |
| 20260905003523 | 68 | 29 | 13.0 | 16.0 | 0.00 | 0.27 | 0.27 | 95 | 1017.9 |
| 20260905003019 | 68 | 29 | 13.0 | 16.0 | 0.00 | 0.27 | 0.27 | 94 | 1017.8 |
| 20260905002514 | 68 | 29 | 13.0 | 16.0 | 0.00 | 0.27 | 0.27 | 94 | 1017.7 |
| 20260905002014 | 69 | 29 | 13.0 | 16.0 | 0.00 | 0.27 | 0.27 | 93 | 1017.7 |
| 20260905001509 | 69 | 29 | 13.0 | 16.0 | 0.00 | 0.27 | 0.27 | 93 | 1017.8 |
| 20260905001003 | 69 | 29 | 13.0 | 16.0 | 0.00 | 0.27 | 0.27 | 92 | 1017.9 |
| 20260905000459 | 69 | 29 | 13.0 | 16.0 | 0.00 | 0.27 | 0.27 | 92 | 1017.7 |
| 20260904235954 | 69 | 29 | 13.0 | 16.0 | 0.00 | 0.27 | 0.27 | 91 | 1017.7 |
| 20260904235449 | 69 | 29 | 13.0 | 16.0 | 0.00 | 0.27 | 0.27 | 91 | 1017.8 |
| 20260904234949 | 69 | 29 | 13.0 | 16.0 | 0.00 | 0.27 | 0.27 | 90 | 1017.6 |
| 20260904234449 | 70 | 29 | 13.0 | 16.0 | 0.00 | 0.27 | 0.27 | 90 | 1017.6 |
| 20260904233945 | 70 | 29 | 13.0 | 16.0 | 0.00 | 0.27 | 0.27 | 90 | 1017.4 |
| 20260904233440 | 70 | 29 | 13.0 | 16.0 | 0.00 | 0.27 | 0.27 | 89 | 1017.6 |
| 20260904232936 | 70 | 29 | 13.0 | 16.0 | 0.00 | 0.27 | 0.27 | 89 | 1017.5 |
| 20260904232432 | 70 | 29 | 13.0 | 16.0 | 0.00 | 0.27 | 0.27 | 89 | 1017.7 |
| 20260904231929 | 70 | 29 | 13.0 | 16.0 | 0.00 | 0.27 | 0.27 | 88 | 1017.4 |
| 20260904231423 | 71 | 29 | 13.0 | 16.0 | 0.00 | 0.27 | 0.27 | 87 | 1017.5 |
| 20260904230919 | 71 | 29 | 13.0 | 16.0 | 0.00 | 0.27 | 0.27 | 86 | 1017.5 |
| 20260904230417 | 71 | 29 | 13.0 | 16.0 | 0.00 | 0.27 | 0.27 | 85 | 1017.6 |
| 20260904225912 | 71 | 29 | 13.0 | 16.0 | 0.00 | 0.27 | 0.27 | 82 | 1017.6 |
| 20260904225410 | 71 | 29 | 13.0 | 16.0 | 0.00 | 0.27 | 0.27 | 82 | 1017.5 |
| 20260904224905 | 72 | 29 | 13.0 | 16.0 | 0.00 | 0.27 | 0.27 | 84 | 1017.6 |
| 20260904224401 | 73 | 29 | 13.0 | 16.0 | 0.00 | 0.27 | 0.27 | 81 | 1017.5 |
| 20260904223900 | 73 | 29 | 13.0 | 16.0 | 0.00 | 0.27 | 0.27 | 80 | 1017.5 |
| 20260904223359 | 73 | 29 | 13.0 | 16.0 | 0.00 | 0.27 | 0.27 | 80 | 1017.6 |
| 20260904222856 | 73 | 29 | 13.0 | 16.0 | 0.00 | 0.27 | 0.27 | 81 | 1017.6 |
| 20260904222356 | 74 | 29 | 13.0 | 16.0 | 0.00 | 0.27 | 0.27 | 79 | 1017.3 |
| 20260904221856 | 74 | 29 | 13.0 | 16.0 | 0.00 | 0.27 | 0.27 | 77 | 1017.4 |
| 20260904221351 | 74 | 29 | 13.0 | 16.0 | 0.00 | 0.27 | 0.27 | 77 | 1017.5 |
| 20260904220846 | 74 | 29 | 13.0 | 16.0 | 0.00 | 0.27 | 0.27 | 76 | 1017.4 |
| 20260904220345 | 74 | 29 | 13.0 | 16.0 | 0.00 | 0.27 | 0.27 | 76 | 1017.5 |
| 20260904215841 | 76 | 29 | 13.0 | 16.0 | 0.00 | 0.27 | 0.27 | 73 | 1017.2 |
| 20260904215336 | 78 | 29 | 13.0 | 16.0 | 0.00 | 0.27 | 0.27 | 70 | 1017.6 |
| 20260904214832 | 78 | 29 | 13.0 | 16.0 | 0.00 | 0.27 | 0.27 | 67 | 1017.3 |
| 20260904214328 | 79 | 29 | 13.0 | 16.0 | 0.00 | 0.27 | 0.27 | 70 | 1017.5 |
| 20260904213826 | 80 | 29 | 13.0 | 16.0 | 0.00 | 0.27 | 0.27 | 68 | 1017.3 |
| 20260904213321 | 80 | 29 | 13.0 | 16.0 | 0.00 | 0.27 | 0.27 | 65 | 1017.4 |
| 20260904212817 | 82 | 29 | 13.0 | 16.0 | 0.00 | 0.27 | 0.27 | 61 | 1017.3 |
| 20260904212317 | 83 | 29 | 13.0 | 16.0 | 0.00 | 0.27 | 0.27 | 59 | 1017.2 |
| 20260904211813 | 84 | 29 | 13.0 | 16.0 | 0.00 | 0.27 | 0.27 | 62 | 1017.4 |
| 20260904211307 | 84 | 29 | 13.0 | 16.0 | 0.00 | 0.27 | 0.27 | 58 | 1017.4 |
| 20260904210802 | 84 | 29 | 13.0 | 16.0 | 0.00 | 0.27 | 0.27 | 59 | 1017.3 |
| 20260904210256 | 82 | 29 | 13.0 | 16.0 | 0.00 | 0.27 | 0.27 | 59 | 1017.3 |
| 20260904205752 | 82 | 29 | 13.0 | 16.0 | 0.00 | 0.27 | 0.27 | 58 | 1017.4 |
| 20260904205248 | 80 | 29 | 13.0 | 16.0 | 0.00 | 0.27 | 0.27 | 57 | 1017.6 |
| 20260904204745 | 84 | 29 | 13.0 | 16.0 | 0.00 | 0.27 | 0.27 | 57 | 1017.5 |
| 20260904204240 | 83 | 29 | 13.0 | 16.0 | 0.00 | 0.27 | 0.27 | 57 | 1017.5 |
| 20260904203736 | 83 | 29 | 13.0 | 16.0 | 0.00 | 0.27 | 0.27 | 57 | 1017.5 |
| 20260904203232 | 83 | 29 | 13.0 | 16.0 | 0.00 | 0.27 | 0.27 | 57 | 1017.6 |
| 20260904202728 | 84 | 29 | 13.0 | 16.0 | 0.00 | 0.27 | 0.27 | 55 | 1017.5 |
| 20260904202224 | 83 | 29 | 13.0 | 16.0 | 0.00 | 0.27 | 0.27 | 57 | 1017.8 |
| 20260904201720 | 82 | 29 | 13.0 | 16.0 | 0.00 | 0.27 | 0.27 | 59 | 1017.7 |
| 20260904201219 | 82 | 29 | 13.0 | 16.0 | 0.00 | 0.27 | 0.27 | 58 | 1017.6 |
| 20260904200714 | 82 | 29 | 13.0 | 16.0 | 0.00 | 0.27 | 0.27 | 58 | 1017.5 |
| 20260904200209 | 82 | 29 | 13.0 | 16.0 | 0.00 | 0.27 | 0.27 | 60 | 1017.6 |
| 20260904195708 | 80 | 29 | 13.0 | 16.0 | 0.00 | 0.27 | 0.27 | 57 | 1017.8 |
| 20260904195201 | 82 | 29 | 13.0 | 16.0 | 0.00 | 0.27 | 0.27 | 58 | 1017.6 |
| 20260904194656 | 82 | 29 | 13.0 | 16.0 | 0.00 | 0.27 | 0.27 | 55 | 1017.6 |
| 20260904194155 | 84 | 29 | 13.0 | 16.0 | 0.00 | 0.27 | 0.27 | 57 | 1017.5 |
| 20260904193650 | 82 | 29 | 13.0 | 16.0 | 0.00 | 0.27 | 0.27 | 60 | 1017.7 |
| 20260904193142 | 81 | 29 | 13.0 | 16.0 | 0.00 | 0.27 | 0.27 | 59 | 1017.7 |
| 20260904192641 | 82 | 29 | 13.0 | 16.0 | 0.00 | 0.27 | 0.27 | 57 | 1017.8 |
| 20260904192136 | 83 | 29 | 13.0 | 16.0 | 0.00 | 0.27 | 0.27 | 56 | 1017.8 |
| 20260904191633 | 82 | 29 | 13.0 | 16.0 | 0.00 | 0.27 | 0.27 | 58 | 1017.8 |
| 20260904191129 | 81 | 29 | 13.0 | 16.0 | 0.00 | 0.27 | 0.27 | 59 | 1018.1 |
| 20260904190625 | 83 | 29 | 13.0 | 16.0 | 0.00 | 0.27 | 0.27 | 57 | 1017.9 |
| 20260904190121 | 82 | 29 | 13.0 | 16.0 | 0.00 | 0.27 | 0.27 | 57 | 1018.0 |
| 20260904185618 | 82 | 29 | 13.0 | 16.0 | 0.00 | 0.27 | 0.27 | 59 | 1018.2 |
| 20260904185117 | 80 | 29 | 13.0 | 16.0 | 0.00 | 0.27 | 0.27 | 62 | 1018.2 |
| 20260904184611 | 81 | 29 | 13.0 | 16.0 | 0.00 | 0.27 | 0.27 | 58 | 1018.1 |
| 20260904184106 | 81 | 29 | 13.0 | 16.0 | 0.00 | 0.27 | 0.27 | 59 | 1018.2 |
| 20260904183602 | 82 | 29 | 13.0 | 16.0 | 0.00 | 0.27 | 0.27 | 65 | 1018.3 |
| 20260904183056 | 80 | 29 | 13.0 | 16.0 | 0.00 | 0.27 | 0.27 | 64 | 1018.2 |
| 20260904182552 | 80 | 29 | 13.0 | 16.0 | 0.00 | 0.27 | 0.27 | 59 | 1018.1 |
| 20260904182046 | 80 | 29 | 13.0 | 16.0 | 0.00 | 0.27 | 0.27 | 63 | 1018.2 |
| 20260904181542 | 81 | 29 | 13.0 | 16.0 | 0.00 | 0.27 | 0.27 | 65 | 1018.1 |
| 20260904181042 | 81 | 29 | 13.0 | 16.0 | 0.00 | 0.27 | 0.27 | 64 | 1018.0 |
| 20260904180536 | 81 | 29 | 13.0 | 16.0 | 0.00 | 0.27 | 0.27 | 61 | 1018.0 |
| 20260904180032 | 80 | 29 | 13.0 | 16.0 | 0.00 | 0.27 | 0.27 | 63 | 1018.0 |
| 20260904175532 | 78 | 29 | 13.0 | 16.0 | 0.00 | 0.27 | 0.27 | 66 | 1018.3 |
| 20260904175030 | 81 | 29 | 13.0 | 16.0 | 0.00 | 0.27 | 0.27 | 68 | 1018.2 |
| 20260904174525 | 79 | 29 | 13.0 | 16.0 | 0.00 | 0.27 | 0.27 | 62 | 1018.2 |
| 20260904174022 | 80 | 29 | 13.0 | 16.0 | 0.00 | 0.27 | 0.27 | 61 | 1018.2 |
| 20260904173516 | 79 | 29 | 13.0 | 16.0 | 0.00 | 0.27 | 0.27 | 61 | 1018.0 |
| 20260904173012 | 79 | 29 | 13.0 | 16.0 | 0.00 | 0.27 | 0.27 | 63 | 1018.0 |
| 20260904172508 | 78 | 29 | 13.0 | 16.0 | 0.00 | 0.27 | 0.27 | 61 | 1018.0 |
| 20260904172006 | 79 | 29 | 13.0 | 16.0 | 0.00 | 0.27 | 0.27 | 65 | 1018.0 |
| 20260904171502 | 80 | 29 | 13.0 | 16.0 | 0.00 | 0.27 | 0.27 | 64 | 1018.0 |
| 20260904170958 | 78 | 29 | 13.0 | 16.0 | 0.00 | 0.27 | 0.27 | 62 | 1018.1 |
| 20260904170453 | 80 | 29 | 13.0 | 16.0 | 0.00 | 0.27 | 0.27 | 63 | 1018.2 |
| 20260904165949 | 78 | 29 | 13.0 | 16.0 | 0.00 | 0.27 | 0.27 | 65 | 1018.2 |
| 20260904165448 | 78 | 29 | 13.0 | 16.0 | 0.00 | 0.27 | 0.27 | 64 | 1018.1 |
| 20260904164947 | 79 | 29 | 13.0 | 16.0 | 0.00 | 0.27 | 0.27 | 71 | 1018.3 |
| 20260904164442 | 78 | 29 | 13.0 | 16.0 | 0.00 | 0.27 | 0.27 | 67 | 1018.4 |
| 20260904163938 | 80 | 29 | 13.0 | 16.0 | 0.00 | 0.27 | 0.27 | 64 | 1018.2 |
| 20260904163437 | 79 | 29 | 13.0 | 16.0 | 0.00 | 0.27 | 0.27 | 63 | 1018.4 |
| 20260904162937 | 78 | 29 | 13.0 | 16.0 | 0.00 | 0.27 | 0.27 | 69 | 1018.2 |
| 20260904162433 | 79 | 29 | 13.0 | 16.0 | 0.00 | 0.27 | 0.27 | 70 | 1018.0 |
| 20260904161928 | 79 | 29 | 13.0 | 16.0 | 0.00 | 0.27 | 0.27 | 68 | 1018.2 |
| 20260904161423 | 78 | 29 | 13.0 | 16.0 | 0.00 | 0.27 | 0.27 | 66 | 1018.3 |
| 20260904160914 | 78 | 29 | 13.0 | 16.0 | 0.00 | 0.27 | 0.27 | 64 | 1018.4 |
| 20260904160408 | 78 | 29 | 13.0 | 16.0 | 0.00 | 0.27 | 0.27 | 66 | 1018.5 |
| 20260904155858 | 77 | 29 | 13.0 | 16.0 | 0.00 | 0.27 | 0.27 | 69 | 1018.4 |
| 20260904155357 | 78 | 29 | 13.0 | 16.0 | 0.00 | 0.27 | 0.27 | 74 | 1018.5 |
| 20260904154856 | 77 | 29 | 13.0 | 16.0 | 0.00 | 0.27 | 0.27 | 74 | 1018.7 |
| 20260904154351 | 78 | 29 | 13.0 | 16.0 | 0.00 | 0.27 | 0.27 | 72 | 1018.8 |
| 20260904153846 | 76 | 29 | 13.0 | 16.0 | 0.00 | 0.27 | 0.27 | 73 | 1018.7 |
| 20260904153342 | 76 | 29 | 13.0 | 16.0 | 0.00 | 0.27 | 0.27 | 74 | 1018.5 |
| 20260904152838 | 76 | 29 | 13.0 | 16.0 | 0.00 | 0.27 | 0.27 | 79 | 1018.8 |
| 20260904152332 | 76 | 29 | 13.0 | 16.0 | 0.00 | 0.27 | 0.27 | 81 | 1018.8 |
| 20260904151827 | 75 | 29 | 13.0 | 16.0 | 0.00 | 0.27 | 0.27 | 80 | 1018.8 |
| 20260904151326 | 75 | 29 | 13.0 | 16.0 | 0.00 | 0.27 | 0.27 | 84 | 1018.9 |
| 20260904150822 | 76 | 29 | 13.0 | 16.0 | 0.00 | 0.27 | 0.27 | 83 | 1018.7 |
| 20260904150317 | 75 | 29 | 13.0 | 16.0 | 0.00 | 0.27 | 0.27 | 82 | 1018.8 |
| 20260904145815 | 74 | 29 | 13.0 | 16.0 | 0.00 | 0.27 | 0.27 | 82 | 1018.8 |
| 20260904145312 | 74 | 29 | 13.0 | 16.0 | 0.00 | 0.27 | 0.27 | 89 | 1018.9 |
| 20260904144807 | 73 | 29 | 13.0 | 16.0 | 0.00 | 0.27 | 0.27 | 87 | 1018.6 |
| 20260904144302 | 74 | 29 | 13.0 | 16.0 | 0.00 | 0.27 | 0.27 | 91 | 1018.7 |
| 20260904143758 | 74 | 29 | 13.0 | 16.0 | 0.00 | 0.27 | 0.27 | 94 | 1018.5 |
| 20260904143254 | 72 | 29 | 13.0 | 16.0 | 0.00 | 0.27 | 0.27 | 94 | 1018.5 |
| 20260904142750 | 72 | 29 | 13.0 | 16.0 | 0.00 | 0.27 | 0.27 | 96 | 1018.7 |
| 20260904142246 | 72 | 29 | 13.0 | 16.0 | 0.00 | 0.27 | 0.27 | 97 | 1018.6 |
| 20260904141746 | 71 | 29 | 13.0 | 16.0 | 0.00 | 0.27 | 0.27 | 99 | 1018.9 |
| 20260904141241 | 71 | 29 | 13.0 | 16.0 | 0.00 | 0.27 | 0.27 | 99 | 1018.7 |
| 20260904140737 | 71 | 29 | 13.0 | 16.0 | 0.00 | 0.27 | 0.27 | 99 | 1018.5 |
| 20260904140232 | 71 | 29 | 13.0 | 16.0 | 0.00 | 0.27 | 0.27 | 99 | 1018.6 |
| 20260904135730 | 71 | 29 | 13.0 | 16.0 | 0.00 | 0.27 | 0.27 | 99 | 1018.6 |
| 20260904135226 | 71 | 29 | 13.0 | 16.0 | 0.00 | 0.27 | 0.27 | 99 | 1018.4 |
| 20260904134722 | 71 | 29 | 13.0 | 16.0 | 0.00 | 0.27 | 0.27 | 99 | 1018.6 |
| 20260904134221 | 71 | 29 | 13.0 | 16.0 | 0.00 | 0.27 | 0.27 | 99 | 1018.6 |
| 20260904133716 | 71 | 29 | 13.0 | 16.0 | 0.00 | 0.27 | 0.27 | 99 | 1018.5 |
| 20260904133213 | 71 | 29 | 13.0 | 16.0 | 0.00 | 0.27 | 0.27 | 99 | 1018.6 |
| 20260904132712 | 71 | 29 | 13.0 | 16.0 | 0.00 | 0.27 | 0.27 | 99 | 1018.4 |
| 20260904132208 | 71 | 29 | 13.0 | 16.0 | 0.00 | 0.27 | 0.27 | 99 | 1018.6 |
| 20260904131707 | 71 | 29 | 13.0 | 16.0 | 0.00 | 0.27 | 0.27 | 99 | 1018.6 |
| 20260904131203 | 71 | 29 | 13.0 | 16.0 | 0.00 | 0.27 | 0.27 | 99 | 1018.3 |
| 20260904130702 | 71 | 29 | 13.0 | 16.0 | 0.00 | 0.27 | 0.27 | 99 | 1018.5 |
| 20260904130202 | 70 | 29 | 13.0 | 16.0 | 0.00 | 0.27 | 0.27 | 99 | 1018.5 |
| 20260904125658 | 70 | 29 | 13.0 | 16.0 | 0.00 | 0.27 | 0.27 | 99 | 1018.6 |
| 20260904125154 | 70 | 29 | 13.0 | 16.0 | 0.00 | 0.27 | 0.27 | 99 | 1018.4 |
| 20260904124648 | 70 | 29 | 13.0 | 16.0 | 0.00 | 0.27 | 0.27 | 99 | 1018.5 |
| 20260904124144 | 69 | 29 | 13.0 | 16.0 | 0.00 | 0.27 | 0.27 | 99 | 1018.6 |
| 20260904123644 | 69 | 29 | 13.0 | 16.0 | 0.00 | 0.27 | 0.27 | 99 | 1018.6 |
| 20260904123141 | 69 | 29 | 13.0 | 16.0 | 0.00 | 0.27 | 0.27 | 99 | 1018.7 |
| 20260904122640 | 69 | 29 | 13.0 | 16.0 | 0.00 | 0.27 | 0.27 | 99 | 1018.4 |
| 20260904122135 | 69 | 29 | 13.0 | 16.0 | 0.00 | 0.27 | 0.27 | 99 | 1018.6 |
| 20260904121630 | 69 | 29 | 13.0 | 16.0 | 0.00 | 0.27 | 0.27 | 99 | 1018.6 |
| 20260904121126 | 68 | 29 | 13.0 | 16.0 | 0.00 | 0.27 | 0.27 | 99 | 1018.7 |
| 20260904120622 | 68 | 29 | 13.0 | 16.0 | 0.00 | 0.27 | 0.27 | 99 | 1018.6 |
| 20260904120119 | 68 | 29 | 13.0 | 16.0 | 0.00 | 0.27 | 0.27 | 99 | 1018.6 |
| 20260904115619 | 68 | 29 | 13.0 | 16.0 | 0.00 | 0.27 | 0.27 | 99 | 1018.7 |
| 20260904115114 | 68 | 29 | 13.0 | 16.0 | 0.00 | 0.27 | 0.27 | 99 | 1018.6 |
| 20260904114613 | 68 | 29 | 13.0 | 16.0 | 0.00 | 0.27 | 0.27 | 99 | 1018.7 |
| 20260904114109 | 67 | 29 | 13.0 | 16.0 | 0.00 | 0.27 | 0.27 | 99 | 1018.6 |
| 20260904113608 | 67 | 29 | 13.0 | 16.0 | 0.00 | 0.27 | 0.27 | 99 | 1018.6 |
| 20260904113108 | 67 | 29 | 13.0 | 16.0 | 0.00 | 0.27 | 0.27 | 99 | 1018.5 |
| 20260904112603 | 67 | 29 | 13.0 | 16.0 | 0.00 | 0.27 | 0.27 | 99 | 1018.5 |
| 20260904112059 | 67 | 29 | 13.0 | 16.0 | 0.00 | 0.27 | 0.27 | 99 | 1018.3 |
| 20260904111554 | 67 | 29 | 13.0 | 16.0 | 0.00 | 0.27 | 0.27 | 99 | 1018.0 |
| 20260904111050 | 67 | 29 | 13.0 | 16.0 | 0.00 | 0.27 | 0.27 | 99 | 1018.3 |
| 20260904110544 | 67 | 29 | 13.0 | 16.0 | 0.00 | 0.27 | 0.27 | 99 | 1018.3 |
| 20260904110040 | 67 | 29 | 13.0 | 16.0 | 0.00 | 0.27 | 0.27 | 99 | 1018.3 |
| 20260904105539 | 67 | 29 | 13.0 | 16.0 | 0.00 | 0.27 | 0.27 | 99 | 1018.2 |
| 20260904105034 | 67 | 29 | 13.0 | 16.0 | 0.00 | 0.27 | 0.27 | 99 | 1018.1 |
| 20260904104530 | 67 | 29 | 13.0 | 16.0 | 0.00 | 0.27 | 0.27 | 99 | 1018.1 |
| 20260904104026 | 67 | 29 | 13.0 | 16.0 | 0.00 | 0.27 | 0.27 | 99 | 1017.9 |
| 20260904103521 | 67 | 29 | 13.0 | 16.0 | 0.00 | 0.27 | 0.27 | 99 | 1017.8 |
| 20260904103017 | 67 | 29 | 13.0 | 16.0 | 0.00 | 0.27 | 0.27 | 99 | 1018.0 |
| 20260904102513 | 67 | 29 | 13.0 | 16.0 | 0.00 | 0.27 | 0.27 | 99 | 1017.9 |
| 20260904102003 | 67 | 29 | 13.0 | 16.0 | 0.00 | 0.27 | 0.27 | 99 | 1017.7 |
| 20260904101500 | 68 | 29 | 13.0 | 16.0 | 0.00 | 0.27 | 0.27 | 99 | 1017.9 |
| 20260904100955 | 68 | 29 | 13.0 | 16.0 | 0.00 | 0.27 | 0.27 | 99 | 1017.7 |
| 20260904100450 | 68 | 29 | 13.0 | 16.0 | 0.00 | 0.27 | 0.27 | 99 | 1017.6 |
| 20260904095949 | 68 | 29 | 13.0 | 16.0 | 0.00 | 0.27 | 0.27 | 99 | 1017.4 |
| 20260904095444 | 68 | 29 | 13.0 | 16.0 | 0.00 | 0.27 | 0.27 | 99 | 1017.3 |
| 20260904094944 | 68 | 29 | 13.0 | 16.0 | 0.00 | 0.27 | 0.27 | 99 | 1017.4 |
| 20260904094440 | 68 | 29 | 13.0 | 16.0 | 0.00 | 0.27 | 0.27 | 99 | 1017.4 |
| 20260904093936 | 68 | 29 | 13.0 | 16.0 | 0.00 | 0.27 | 0.27 | 99 | 1017.6 |
| 20260904093431 | 68 | 29 | 13.0 | 16.0 | 0.00 | 0.27 | 0.27 | 99 | 1017.8 |
| 20260904092926 | 68 | 29 | 13.0 | 16.0 | 0.00 | 0.27 | 0.27 | 99 | 1017.6 |
| 20260904092423 | 68 | 29 | 13.0 | 16.0 | 0.00 | 0.27 | 0.27 | 99 | 1017.7 |
| 20260904091913 | 68 | 29 | 13.0 | 16.0 | 0.00 | 0.27 | 0.27 | 99 | 1017.5 |
| 20260904091408 | 69 | 29 | 13.0 | 16.0 | 0.00 | 0.27 | 0.27 | 99 | 1017.4 |
| 20260904090903 | 69 | 29 | 13.0 | 16.0 | 0.00 | 0.27 | 0.27 | 99 | 1017.4 |
| 20260904090359 | 69 | 29 | 13.0 | 16.0 | 0.00 | 0.27 | 0.27 | 99 | 1017.4 |
| 20260904085849 | 69 | 29 | 13.0 | 16.0 | 0.00 | 0.27 | 0.27 | 99 | 1017.3 |
| 20260904085343 | 69 | 29 | 13.0 | 16.0 | 0.00 | 0.27 | 0.27 | 99 | 1017.1 |
| 20260904084838 | 69 | 29 | 13.0 | 16.0 | 0.00 | 0.27 | 0.27 | 99 | 1017.2 |
| 20260904084334 | 69 | 29 | 13.0 | 16.0 | 0.00 | 0.27 | 0.27 | 99 | 1017.0 |
| 20260904083830 | 69 | 29 | 13.0 | 16.0 | 0.00 | 0.27 | 0.27 | 99 | 1017.1 |
| 20260904083326 | 69 | 29 | 13.0 | 16.0 | 0.00 | 0.27 | 0.27 | 99 | 1016.9 |
| 20260904082822 | 69 | 29 | 13.0 | 16.0 | 0.00 | 0.27 | 0.27 | 99 | 1016.7 |
| 20260904082316 | 69 | 29 | 13.0 | 16.0 | 0.02 | 0.27 | 0.27 | 99 | 1016.5 |
| 20260904081811 | 69 | 29 | 13.0 | 16.0 | 0.05 | 0.27 | 0.27 | 99 | 1016.4 |
| 20260904081307 | 69 | 29 | 13.0 | 16.0 | 0.07 | 0.27 | 0.27 | 99 | 1016.3 |
| 20260904080803 | 69 | 29 | 13.0 | 16.0 | 0.09 | 0.26 | 0.26 | 99 | 1016.7 |
| 20260904080258 | 69 | 29 | 13.0 | 16.0 | 0.12 | 0.26 | 0.26 | 99 | 1017.0 |
| 20260904075754 | 69 | 29 | 13.0 | 16.0 | 0.09 | 0.24 | 0.24 | 99 | 1017.2 |
| 20260904075254 | 69 | 29 | 13.0 | 16.0 | 0.12 | 0.23 | 0.23 | 99 | 1017.5 |
| 20260904074747 | 69 | 29 | 13.0 | 16.0 | 0.61 | 0.23 | 0.23 | 99 | 1017.7 |
| 20260904074242 | 70 | 29 | 13.0 | 16.0 | 0.90 | 0.20 | 0.20 | 99 | 1017.8 |
| 20260904073737 | 70 | 29 | 13.0 | 16.0 | 0.59 | 0.11 | 0.11 | 99 | 1018.3 |
| 20260904073228 | 69 | 29 | 13.0 | 16.0 | 0.12 | 0.02 | 0.02 | 99 | 1018.3 |
| 20260904072724 | 69 | 29 | 13.0 | 16.0 | 0.07 | 0.01 | 0.01 | 99 | 1017.7 |
| 20260904072218 | 70 | 29 | 13.0 | 16.0 | 0.02 | 0.00 | 0.00 | 99 | 1017.4 |
| 20260904071714 | 71 | 29 | 13.0 | 16.0 | 0.00 | 0.00 | 0.00 | 99 | 1017.4 |
| 20260904071209 | 71 | 29 | 13.0 | 16.0 | 0.00 | 0.00 | 0.00 | 99 | 1017.1 |
| 20260904070709 | 71 | 29 | 13.0 | 16.0 | 0.00 | 0.00 | 0.00 | 99 | 1017.2 |
| 20260904070207 | 71 | 29 | 13.0 | 16.0 | 0.00 | 0.00 | 0.00 | 99 | 1017.3 |
| 20260904065702 | 71 | 29 | 13.0 | 16.0 | 0.00 | 0.00 | 0.00 | 99 | 1017.5 |
| 20260904065159 | 71 | 29 | 13.0 | 16.0 | 0.00 | 0.00 | 0.00 | 99 | 1017.5 |
| 20260904064653 | 71 | 29 | 13.0 | 16.0 | 0.00 | 0.00 | 0.00 | 99 | 1017.6 |
| 20260904064149 | 71 | 29 | 13.0 | 16.0 | 0.00 | 0.00 | 0.00 | 99 | 1017.6 |
| 20260904063645 | 71 | 29 | 13.0 | 16.0 | 0.00 | 0.00 | 0.00 | 99 | 1017.6 |
| 20260904063140 | 71 | 29 | 13.0 | 16.0 | 0.00 | 0.00 | 0.00 | 99 | 1017.7 |
| 20260904062636 | 71 | 29 | 13.0 | 16.0 | 0.00 | 0.00 | 0.00 | 99 | 1017.8 |
| 20260904062132 | 71 | 29 | 13.0 | 16.0 | 0.00 | 0.00 | 0.00 | 99 | 1017.5 |
| 20260904061627 | 71 | 29 | 13.0 | 16.0 | 0.00 | 0.00 | 0.00 | 99 | 1017.7 |
| 20260904061123 | 71 | 29 | 13.0 | 16.0 | 0.00 | 0.00 | 0.00 | 99 | 1018.0 |
| 20260904060620 | 71 | 29 | 13.0 | 16.0 | 0.00 | 0.00 | 0.00 | 99 | 1018.1 |
| 20260904060115 | 71 | 29 | 13.0 | 16.0 | 0.00 | 0.00 | 0.00 | 99 | 1018.0 |
| 20260904055610 | 70 | 29 | 13.0 | 16.0 | 0.00 | 0.00 | 0.00 | 99 | 1018.0 |
| 20260904055105 | 70 | 29 | 13.0 | 16.0 | 0.00 | 0.00 | 0.00 | 99 | 1018.2 |
| 20260904054601 | 70 | 29 | 13.0 | 16.0 | 0.00 | 0.00 | 0.00 | 99 | 1018.3 |
| 20260904054056 | 70 | 29 | 13.0 | 16.0 | 0.00 | 0.00 | 0.00 | 99 | 1018.1 |
| 20260904053555 | 70 | 29 | 13.0 | 16.0 | 0.00 | 0.00 | 0.00 | 99 | 1018.2 |
| 20260904053046 | 70 | 29 | 13.0 | 16.0 | 0.00 | 0.00 | 0.00 | 99 | 1018.3 |
| 20260904052542 | 71 | 29 | 13.0 | 16.0 | 0.00 | 0.00 | 0.00 | 99 | 1018.2 |
| 20260904052038 | 71 | 29 | 13.0 | 16.0 | 0.00 | 0.00 | 0.00 | 99 | 1018.1 |
| 20260904051534 | 70 | 29 | 13.0 | 16.0 | 0.00 | 0.00 | 0.00 | 99 | 1018.3 |
| 20260904051033 | 70 | 29 | 13.0 | 16.0 | 0.00 | 0.00 | 0.00 | 99 | 1018.3 |
| 20260904050529 | 71 | 29 | 13.0 | 16.0 | 0.00 | 0.00 | 0.00 | 99 | 1018.1 |
| 20260904050025 | 71 | 29 | 13.0 | 16.0 | 0.00 | 0.00 | 0.00 | 99 | 1018.0 |
| 20260904045520 | 71 | 29 | 13.0 | 16.0 | 0.00 | 0.00 | 0.00 | 99 | 1018.2 |
| 20260904045015 | 71 | 29 | 13.0 | 16.0 | 0.00 | 0.00 | 0.00 | 99 | 1018.4 |
| 20260904044511 | 71 | 29 | 13.0 | 16.0 | 0.00 | 0.00 | 0.00 | 99 | 1018.7 |
| 20260904044007 | 71 | 29 | 13.0 | 16.0 | 0.00 | 0.00 | 0.00 | 99 | 1018.9 |
| 20260904043503 | 71 | 29 | 13.0 | 16.0 | 0.00 | 0.00 | 0.00 | 99 | 1018.7 |
| 20260904042958 | 71 | 29 | 13.0 | 16.0 | 0.00 | 0.00 | 0.00 | 99 | 1018.8 |
| 20260904042455 | 71 | 29 | 13.0 | 16.0 | 0.00 | 0.00 | 0.00 | 99 | 1018.6 |
| 20260904041949 | 71 | 29 | 13.0 | 16.0 | 0.00 | 0.00 | 0.00 | 99 | 1018.9 |
| 20260904041446 | 71 | 29 | 13.0 | 16.0 | 0.00 | 0.00 | 0.00 | 99 | 1018.8 |
| 20260904040942 | 71 | 29 | 13.0 | 16.0 | 0.00 | 0.00 | 0.00 | 99 | 1018.7 |
| 20260904040441 | 71 | 29 | 13.0 | 16.0 | 0.00 | 0.00 | 0.00 | 99 | 1018.8 |
| 20260904035937 | 71 | 29 | 13.0 | 16.0 | 0.00 | 0.33 | 0.33 | 99 | 1018.9 |
| 20260904035433 | 71 | 29 | 13.0 | 16.0 | 0.00 | 0.33 | 0.33 | 99 | 1018.8 |
| 20260904034932 | 71 | 29 | 13.0 | 16.0 | 0.00 | 0.33 | 0.33 | 99 | 1018.7 |
| 20260904034427 | 71 | 29 | 13.0 | 16.0 | 0.00 | 0.33 | 0.33 | 99 | 1018.6 |
| 20260904033923 | 71 | 29 | 13.0 | 16.0 | 0.00 | 0.33 | 0.33 | 99 | 1018.9 |
| 20260904033419 | 71 | 29 | 13.0 | 16.0 | 0.00 | 0.33 | 0.33 | 99 | 1018.9 |
| 20260904032915 | 71 | 29 | 13.0 | 16.0 | 0.00 | 0.33 | 0.33 | 99 | 1018.9 |
| 20260904032410 | 71 | 29 | 13.0 | 16.0 | 0.00 | 0.33 | 0.33 | 99 | 1018.9 |
| 20260904031910 | 71 | 29 | 13.0 | 16.0 | 0.00 | 0.33 | 0.33 | 99 | 1018.9 |
| 20260904031405 | 71 | 29 | 13.0 | 16.0 | 0.00 | 0.33 | 0.33 | 99 | 1018.9 |
| 20260904030902 | 71 | 29 | 13.0 | 16.0 | 0.00 | 0.33 | 0.33 | 99 | 1019.2 |
| 20260904030357 | 71 | 29 | 13.0 | 16.0 | 0.00 | 0.33 | 0.33 | 99 | 1019.1 |
| 20260904025852 | 71 | 29 | 13.0 | 16.0 | 0.00 | 0.33 | 0.33 | 99 | 1019.3 |